Location: Marsån
(66.4167°N, 22.2833°E)
Time: 10:57:35
(UTC+00:00)

Cosmos 2333 Rocket - Pass Details

Date: 24 February 2024
Orbit: 841 x 861 km, 70.8° (Epoch: 15 April)

Event Time Altitude Azimuth Distance (km) Brightness Sun altitude
Rises 17:15:35 0° 305° (NW) 3,424 6.4 -11.8°
Reaches altitude 10° 17:18:02 10° 305° (NW) 2,484 5.6 -12.1°
Maximum altitude 17:23:46 87° 217° (SW) 856 2.2 -12.6°
Enters shadow 17:28:56 13° 130° (SE) 2,278 3.9 -13.1°
